SCP
1 1 2 2 2 2 3 4 3 3 4 5 5 4 3 2 1 1 2 2 2 2 3 3 3 3 2 2 1 1 1 1 1 1 0 0 0 0 0 0 0 0 0
2 2 2 2 2 3 4 4 4 3 4 5 5 5 4 2 1 1 2 2 2 2 3 3 3 3 2 2 1 1 1 1 1 1 0 0 0 0 0 0 0 0 0
4 3 3 3 3 4 4 5 4 3 4 4 5 6 5 3 2 1 2 2 3 3 3 4 4 3 3 2 1 1 1 1 1 1 0 0 0 0 0 0 0 0 0
5 4 3 4 4 5 6 5 5 4 3 3 4 6 6 5 3 2 2 3 3 4 4 4 4 3 3 2 1 1 1 1 1 1 1 1 0 0 0 0 0 0 0
6 5 4 5 6 7 7 7 6 4 3 3 4 5 6 6 4 3 3 3 3 4 4 4 3 3 2 2 1 1 1 1 1 1 1 1 1 1 1 1 1 0 0
7 7 7 8 8 7 8 7 6 4 4 4 4 4 5 5 3 3 3 3 3 3 3 3 2 2 1 1 1 1 1 1 1 1 1 1 1 1 1 1 1 1 0
8 9 10 9 7 7 7 6 5 4 4 5 5 5 5 4 3 2 2 2 2 2 2 2 1 1 1 1 1 1 1 1 1 1 1 0 0 0 1 1 1 1 0
7 8 9 8 6 5 5 5 4 4 5 6 6 6 5 3 3 2 2 2 1 1 1 1 1 1 1 1 1 1 1 1 1 1 1 0 0 0 1 1 1 1 1
6 7 6 6 5 5 4 4 5 5 6 6 6 5 4 3 2 2 2 1 1 1 1 1 1 1 1 1 2 2 1 1 1 1 1 0 0 0 1 1 1 1 1
6 6 6 6 5 4 4 5 5 5 5 5 4 3 3 2 2 2 2 2 2 1 1 1 1 1 1 1 2 1 1 1 1 1 1 0 0 0 1 1 1 1 1
7 7 7 6 5 5 5 5 5 5 4 3 3 2 2 2 2 3 3 3 3 2 2 2 2 2 2 2 2 1 1 1 1 1 1 1 1 1 1 1 1 1 2
8 8 7 6 6 6 6 6 6 5 4 3 3 2 2 2 3 3 4 4 4 4 3 3 3 2 2 2 2 2 2 2 1 1 1 1 1 1 1 1 1 2 2
9 8 7 7 7 7 7 7 7 6 5 4 3 3 3 3 3 3 4 4 4 4 4 4 4 3 3 3 3 3 3 3 3 2 2 2 2 2 2 2 2 2 2
12 11 10 8 8 8 8 8 8 7 6 6 5 5 4 4 4 4 3 3 3 3 3 4 3 4 4 4 4 5 5 4 4 4 4 3 3 3 2 2 2 2 2
13 13 12 10 9 9 9 9 9 8 8 7 6 6 6 5 5 4 4 3 3 3 3 3 3 3 4 4 5 6 6 5 6 6 6 5 4 3 3 2 2 2 2
12 14 14 12 10 9 9 10 9 8 8 7 6 6 5 6 6 5 4 4 4 4 4 4 4 4 4 4 4 5 6 7 7 8 8 7 5 4 3 2 2 2 2
10 12 13 13 11 9 9 9 8 8 8 6 5 5 5 5 6 5 4 4 5 6 6 5 5 5 4 4 3 3 5 6 7 7 8 7 5 4 3 2 1 1 1
9 10 12 12 11 10 9 9 9 9 8 6 6 6 6 6 6 5 5 4 4 4 5 5 4 4 4 3 2 2 3 4 5 5 6 6 5 4 3 2 1 1 1
12 12 12 10 8 8 9 10 10 10 8 7 6 6 6 6 6 5 5 5 4 4 4 4 3 3 3 2 1 2 3 3 3 4 4 4 4 3 2 1 1 1 1
15 14 12 9 8 8 10 11 11 10 8 7 6 6 6 6 5 5 5 5 5 4 4 4 4 3 3 2 1 2 3 3 3 3 3 3 3 2 1 1 1 1 1
14 14 12 9 8 9 10 11 10 8 7 6 6 6 6 5 5 5 5 5 5 5 5 5 4 3 3 3 2 2 3 3 3 2 2 2 1 1 0 0 1 1 1
14 14 12 10 9 9 10 9 8 7 6 6 6 5 5 5 5 5 5 5 5 5 5 5 5 4 4 3 2 1 2 2 2 2 2 2 1 1 0 0 0 0 0
14 14 12 10 9 9 9 8 7 7 8 8 7 6 5 4 4 5 5 6 5 5 5 6 6 5 5 3 2 2 1 1 1 1 2 2 1 1 0 0 0 0 0
15 15 14 12 10 9 9 8 8 9 9 9 8 7 6 5 5 5 5 5 6 5 6 7 7 6 5 4 3 2 2 1 1 1 1 1 1 1 1 0 0 0 0
17 17 17 15 13 11 9 8 8 9 10 10 10 10 9 8 7 6 5 5 5 5 5 7 7 7 5 4 3 2 2 1 1 1 1 2 2 2 1 1 1 0 0
16 18 19 19 16 13 10 9 9 9 10 11 12 12 11 10 8 7 6 5 4 4 4 6 7 8 6 4 2 2 1 1 1 1 2 2 2 2 2 2 1 1 1
Wind_Speed
10 10 10 10 8 7 6 6 5 4 4 2 2 2 1 1 1 1 2 2 2 2 2 1 1 1 1 1 1 1 0 0 1 1 1 2 1 1 2 2 2 3 4
9 9 9 9 9 8 7 6 6 5 4 3 3 2 2 2 2 1 1 2 2 2 2 2 1 1 1 1 1 1 1 0 1 2 1 2 3 2 1 1 2 3 2
14 12 11 9 9 9 9 8 7 5 5 4 2 2 2 1 1 0 1 1 1 1 1 2 2 2 2 1 1 1 2 1 1 1 3 2 2 2 2 1 0 1 2
11 11 11 10 11 10 8 7 7 6 4 4 4 4 3 2 2 2 1 1 1 1 1 1 2 2 1 2 1 2 2 2 1 1 1 2 3 2 1 2 2 0 1
13 13 12 12 11 10 9 7 7 6 5 4 4 4 2 2 1 1 1 1 1 0 0 1 1 1 1 2 2 1 1 1 1 1 1 0 0 1 2 1 2 1 1
12 11 10 9 8 8 8 7 7 6 6 5 4 4 4 3 2 2 1 1 1 1 0 1 1 1 1 1 1 1 2 1 1 1 1 1 1 1 2 2 1 0 1
11 11 10 9 9 9 9 8 9 7 6 6 5 5 4 4 4 3 2 2 1 1 1 1 1 1 1 1 1 1 1 1 1 1 1 1 1 1 2 2 1 1 0
10 11 11 11 11 11 10 9 9 7 7 6 5 4 4 3 3 3 3 3 2 2 1 1 1 1 1 1 1 1 1 1 1 1 1 1 1 1 2 2 3 1 1
10 11 11 11 11 11 11 10 9 7 7 6 5 4 4 4 3 3 2 2 1 2 1 1 1 1 1 1 1 0 0 1 1 1 1 1 1 1 1 2 3 4 2
10 9 10 10 10 10 9 9 9 8 6 6 5 5 4 4 4 3 3 2 2 1 1 1 1 1 1 1 1 0 1 0 1 0 0 1 1 1 1 1 2 2 3
11 10 9 9 9 9 9 8 8 7 6 6 5 5 4 4 4 3 3 3 2 2 2 1 2 2 1 1 1 0 0 0 0 1 0 1 1 1 1 1 1 2 2
10 10 10 9 8 8 9 9 9 8 7 7 6 5 4 4 4 4 3 3 2 2 2 2 1 1 1 1 1 1 0 0 0 1 0 1 0 1 1 1 1 2 2
8 8 8 8 9 9 8 8 8 8 7 7 6 5 4 4 4 4 3 3 2 2 1 2 2 1 1 1 1 1 1 1 1 1 0 1 0 0 1 1 1 1 2
8 8 7 7 8 8 8 8 8 8 7 6 6 6 5 5 4 4 3 3 3 2 1 2 2 2 1 1 1 0 0 0 0 0 0 1 1 1 1 1 1 2 3
8 9 9 8 7 7 7 7 6 7 8 7 6 6 5 4 4 4 3 3 2 3 2 2 1 1 1 1 1 1 1 1 0 0 0 0 1 1 1 2 2 3 3
8 9 8 8 8 8 8 7 6 6 7 7 6 5 4 4 4 4 3 3 2 2 2 2 1 1 1 2 2 2 1 1 1 1 0 1 1 2 3 3 4 5 5
7 8 8 8 9 9 8 8 7 6 7 6 6 5 5 4 4 4 3 3 3 2 2 2 2 2 2 1 2 3 2 2 1 1 1 1 2 2 2 3 4 3 3
7 6 6 6 6 6 6 7 7 7 7 6 5 5 5 5 4 3 3 3 3 3 3 3 3 2 2 2 3 3 2 2 1 1 1 1 1 1 2 3 3 2 2
7 6 5 5 6 7 7 7 6 7 7 7 6 6 6 5 4 4 4 4 3 3 3 3 3 3 2 2 4 4 2 2 1 1 1 2 1 1 4 4 3 2 1
5 5 4 4 5 6 8 8 7 7 7 7 7 6 5 5 5 5 4 3 3 3 3 2 2 3 2 3 4 4 2 2 1 1 1 1 2 2 3 4 3 3 1
5 6 5 5 4 5 8 8 6 7 7 6 5 5 5 5 5 4 3 3 3 3 3 2 2 2 2 3 4 5 3 3 2 1 1 1 2 3 3 4 3 4 3
4 6 5 4 3 5 7 7 6 6 5 5 5 5 5 5 5 4 4 4 4 4 3 2 2 1 2 2 3 5 5 4 3 3 2 2 3 3 2 2 3 4 3
4 4 5 4 3 4 6 6 5 5 6 5 5 5 4 4 4 5 5 4 4 3 3 3 2 2 1 1 2 4 4 5 3 2 3 3 3 2 1 2 4 3 2
3 4 5 5 4 3 3 4 4 5 6 6 5 4 4 4 3 3 4 4 4 4 3 3 3 3 2 2 1 2 2 2 2 1 1 2 1 1 1 1 1 2 2
1 3 4 5 4 4 3 3 4 5 6 5 5 4 4 4 3 3 2 4 4 5 6 5 5 5 4 5 6 4 3 3 3 2 2 1 1 0 0 0 0 1 1
1 2 3 4 4 4 4 3 4 5 6 5 4 4 4 4 3 3 1 1 2 4 5 6 6 4 5 6 6 6 5 5 6 4 2 2 2 2 2 2 2 1 2
Wind_Direction
173 166 164 160 156 155 154 155 152 162 148 139 142 143 164 176 177 196 195 193 198 190 173 182 196 172 164 193 173 144 169 272 139 93 356 337 324 220 211 201 194 206 205
167 169 168 164 164 165 162 159 163 164 164 162 162 163 160 175 180 205 202 204 199 191 178 174 180 175 154 133 148 131 123 249 140 132 105 354 342 334 294 212 199 207 193
175 174 173 174 169 169 170 170 172 167 167 161 138 121 90 66 69 259 264 252 202 191 179 172 174 176 164 181 196 148 148 185 252 155 145 148 237 304 323 313 225 179 178
175 175 175 176 176 176 171 166 164 161 163 154 149 154 157 169 201 203 220 258 230 213 199 157 162 174 168 179 196 169 170 155 223 270 190 176 172 174 300 330 343 64 161
176 179 180 178 176 172 168 165 159 160 160 161 166 162 162 178 179 177 180 269 314 275 186 164 158 164 172 179 188 175 170 166 180 207 220 180 169 150 156 273 322 357 0
177 178 174 163 164 164 165 165 161 166 166 169 167 169 169 174 164 168 174 233 303 323 348 162 151 149 157 186 198 192 184 195 196 198 175 160 172 188 168 195 246 346 348
174 172 166 163 163 165 168 169 168 174 176 172 179 184 181 176 173 178 178 182 221 264 270 212 187 166 179 186 181 185 220 220 208 215 212 194 200 182 163 152 157 111 355
172 171 172 170 169 170 169 170 174 179 181 179 186 188 178 172 177 178 173 181 200 218 224 196 191 194 181 168 151 152 239 222 223 237 230 224 235 194 167 160 147 126 54
168 172 174 173 173 174 175 173 174 179 185 183 183 179 175 168 169 170 168 175 195 198 183 174 189 197 177 161 135 137 239 245 245 245 242 236 252 220 189 168 158 154 160
169 170 169 171 173 174 172 171 174 181 182 182 183 177 173 170 167 164 175 181 193 184 137 140 168 161 143 146 143 177 238 211 284 240 246 272 263 225 201 178 168 156 155
173 173 172 172 170 165 166 172 176 175 178 184 182 176 178 178 168 173 192 190 178 166 162 171 179 173 166 179 153 210 224 155 320 314 252 262 252 227 227 170 156 150 139
170 171 171 167 161 164 171 177 178 179 183 181 176 178 178 177 175 183 192 178 171 177 172 160 158 169 180 187 183 224 197 156 212 281 323 292 274 219 216 178 171 168 148
162 164 165 167 168 170 171 176 178 179 178 176 176 178 178 177 182 183 179 169 164 159 153 139 153 167 185 198 227 218 200 193 221 250 220 263 142 230 191 167 168 169 144
161 162 164 169 170 170 171 174 176 173 171 172 175 180 183 179 176 175 171 168 166 164 163 155 164 177 180 186 207 213 203 208 244 260 240 243 174 184 159 139 144 140 128
159 167 172 174 170 166 167 168 171 168 168 168 175 183 180 171 164 171 175 168 163 176 175 158 167 179 174 219 201 192 179 182 171 39 41 77 112 119 147 145 146 138 129
167 172 171 168 168 170 169 163 163 162 156 161 171 171 160 168 175 178 174 168 169 167 148 153 165 177 234 249 195 175 172 153 135 125 40 45 68 79 97 116 132 141 148
163 167 171 175 178 177 168 168 166 155 152 156 159 157 162 172 183 178 170 179 187 172 164 177 173 198 243 208 168 161 158 144 145 146 107 51 61 79 94 93 94 102 138
165 167 172 173 175 167 163 163 155 154 158 161 162 162 166 172 172 169 183 194 190 183 188 190 194 202 223 181 164 157 147 123 105 113 117 123 65 82 119 110 87 82 92
166 166 172 172 166 163 161 151 157 160 162 168 174 175 169 172 175 185 196 197 187 193 197 192 193 195 216 164 153 151 140 129 106 96 106 131 138 120 130 122 113 86 55
147 142 141 138 157 167 159 159 167 169 178 181 180 177 172 174 183 193 198 197 189 196 190 195 202 193 195 167 155 159 151 150 154 91 62 126 156 146 141 147 144 142 188
144 136 135 145 172 167 154 159 169 185 188 175 167 170 178 184 183 188 199 183 179 177 181 192 204 188 186 175 165 164 165 172 160 156 206 222 170 170 172 169 172 184 174
138 139 141 151 156 154 152 162 183 187 168 161 164 176 185 189 178 178 192 184 176 175 185 187 205 203 198 191 181 166 170 170 169 188 202 207 174 174 170 166 170 161 142
155 151 149 144 146 156 158 173 196 169 155 157 170 180 184 186 183 183 187 184 181 183 192 191 207 226 222 227 208 184 178 176 176 199 197 193 173 159 164 170 160 150 137
159 157 149 150 165 169 162 177 170 160 158 168 177 177 177 185 187 188 187 186 191 193 195 197 207 211 214 222 210 202 199 177 160 174 167 155 147 146 163 146 149 162 167
165 155 158 164 174 165 153 162 163 159 166 172 177 179 182 182 183 188 196 197 204 200 195 201 196 193 211 224 204 188 190 188 180 139 104 92 92 90 307 272 213 179 164
165 154 165 165 168 164 162 168 166 165 168 171 176 179 177 177 174 168 161 352 217 213 207 204 193 204 207 197 197 198 193 178 155 134 145 180 192 203 206 206 220 215 200